Regional Weather Roundup
Issued by NWS

Home | Current Version | Previous Version | Graphics & Text | Print | Product List | Glossary On
Versions: 1 2 3 4 5 6 7 8 9 10 11 12 13 14 15 16 17 18 19 20 21 22 23 24 25 26 27 28 29 30 31 32 33 34 35 36 37 38 39 40 41 42 43 44 45 46 47 48 49 50
000
ASUS43 KOAX 140110
RWRNE

WEATHER ROUNDUP FOR NEBRASKA
NATIONAL WEATHER SERVICE OMAHA NE
700 PM CST WED DEC 13 2017

NOTES: SATELLITE DATA IS BEING USED TO AUGMENT CLOUD COVER ABOVE
       12000 FEET.
       "FAIR" INDICATES FEW OR NO CLOUDS BELOW 12,000 FEET WITH NO
       SIGNIFICANT WEATHER AND/OR OBSTRUCTIONS TO VISIBILITY.


NEZ001>004-019>022-054>056-140200-
NEBRASKA PANHANDLE

CITY           SKY/WX    TMP DP  RH WIND       PRES   REMARKS
SCOTTSBLUFF    CLOUDY    41  18  39 NW10      30.07R
ALLIANCE       CLOUDY    38  19  46 N15       30.03S WCI  29
CHADRON        CLOUDY    39  24  55 N8        30.07R WCI  33
GORDON         FAIR      38  24  58 N14G20    30.04R WCI  29
KIMBALL        CLOUDY    40  13  33 N13       30.04S WCI  33
SIDNEY         CLOUDY    41  14  33 NW14      30.03R
$$

NEZ057>060-069>072-079>082-140200-
SOUTHWEST NEBRASKA

CITY           SKY/WX    TMP DP  RH WIND       PRES   REMARKS
NORTH PLATTE   CLEAR     39  22  50 NW10      30.00R WCI  32
IMPERIAL       CLEAR     29  14  53 N9        30.02R WCI  20
LEXINGTON      CLEAR     37  22  56 NW8       29.98R WCI  30
MCCOOK         CLEAR     35  18  49 NW8       30.00R WCI  29
OGALLALA       CLOUDY    37  19  49 N7        30.02R WCI  31
$$

NEZ005>010-023>029-035>040-094-140200-
NORTH CENTRAL NEBRASKA

CITY           SKY/WX    TMP DP  RH WIND       PRES   REMARKS
VALENTINE      PTCLDY    40  22  48 NW14      29.99R WCI  32
AINSWORTH      PTCLDY    38  24  55 NW12      29.98R WCI  31
BROKEN BOW     CLEAR     41  24  51 NW15      29.96R
O`NEILL        MOCLDY    36  28  74 N12       29.97R WCI  28
ORD            CLEAR     38  25  59 NW9       29.94R WCI  31
THEDFORD       PTCLDY    40  25  55 NW12      29.99S WCI  32
$$

NEZ041-046>049-061>064-073>077-083>087-140200-
SOUTH CENTRAL NEBRASKA

CITY           SKY/WX    TMP DP  RH WIND       PRES   REMARKS
GRAND ISLAND   CLEAR     36  26  67 NW7       29.95R WCI  30
AURORA         CLEAR     34  23  66 NW9       29.93R WCI  26
HASTINGS       CLEAR     35  23  61 W9        29.95R WCI  28
HEBRON         CLEAR     39  26  58 NW6       29.94R
HOLDREGE       CLEAR     36  23  59 NW6       29.97R WCI  31
KEARNEY        CLEAR     37  24  59 NW8       29.96R WCI  31
YORK           CLEAR     39  27  60 CALM      29.93R
$$

NEZ011>018-030>034-042>045-140200-
NORTHEAST NEBRASKA

CITY           SKY/WX    TMP DP  RH WIND       PRES   REMARKS
NORFOLK        PTCLDY    37  26  64 N13       29.92R WCI  29
ALBION         CLOUDY    38  28  68 N8        29.93R WCI  32
BLAIR          CLOUDY    41  28  60 N22G30    29.90R
COLUMBUS       CLEAR     37  27  67 N13       29.94R WCI  29
FREMONT        CLOUDY    40  27  58 N15G22    29.93R WCI  32
TEKAMAH        CLOUDY    41  24  51 N28G39    29.91R
WAYNE          CLOUDY    38  26  60 N18G33    29.93R WCI  29
$$

NEZ050>053-065>068-078-088>093-140200-
SOUTHEAST NEBRASKA

CITY           SKY/WX    TMP DP  RH WIND       PRES   REMARKS
LINCOLN        CLEAR     38  28  67 N13       29.94R WCI  30
OMAHA EPPLEY   CLOUDY    41  27  57 N17G26    29.91R
BEATRICE       CLEAR     35  25  69 NW8       29.91R WCI  28
FALLS CITY     CLEAR     43  28  55 N10G21    29.89R
NEBRASKA CITY  CLEAR     40  29  65 N13       29.91R WCI  32
PLATTSMOUTH    PTCLDY    40  29  63 N15G23    29.90R WCI  32
$$

NEZ044-045-051>053-067-140200-
OMAHA AREA

CITY           SKY/WX    TMP DP  RH WIND       PRES   REMARKS
OMAHA EPPLEY   CLOUDY    41  27  57 N17G26    29.91R
BLAIR          CLOUDY    41  28  60 N22G30    29.90R
FREMONT        CLOUDY    40  27  58 N15G22    29.93R WCI  32
MILLARD        PTCLDY    43  29  59 N12G18    29.92R
OFFUTT AFB     CLOUDY    42  26  54 N21G29    29.90R
PLATTSMOUTH    PTCLDY    40  29  63 N15G23    29.90R WCI  32
WAHOO          FAIR      39  27  63 N13       29.93R WCI  31
$$




USA.gov is the U.S. government's official web portal to all federal, state and local government web resources and services.